Weather History for KORL - September, 2013

Change the Weather History Date:

Tuesday, September 24, 2013

  Actual Average Record
Temperature  
Mean Temperature 78 °F -  
Max Temperature 84 °F 85 °F 93 °F (1997)
Min Temperature 73 °F 71 °F 66 °F (1996)
Cooling Degree Days 14    
Growing Degree Days 28 (Base 50)    
Moisture  
Dew Point 74 °F    
Average Humidity 89    
Maximum Humidity 97    
Minimum Humidity 69    
Precipitation  
Precipitation 0.48 in - - ()
Sea Level Pressure  
Sea Level Pressure 29.92 in    
Wind  
Wind Speed 6 mph (SSW)    
Max Wind Speed 12 mph    
Max Gust Speed -    
Visibility 8 miles    
Events Rain    
Averages and records for this station are not official NWS values.
T = Trace of Precipitation, MM = Missing Value Source: NWS Daily Summary

Daily Weather History Graph

Daily Weather History Graph

Search for Another Location

Airport or City:

Trip Planner

Search our weather history database for the weather conditions in past years. The results will help you decide how hot, cold, wet, or windy it might be!

Date:

Astronomy

Sep. 24, 2013 Rise Set
Actual Time 7:14 AM EDT 7:19 PM EDT
Civil Twilight 6:51 AM EDT 7:42 PM EDT
Nautical Twilight 6:23 AM EDT 8:10 PM EDT
Astronomical Twilight 5:56 AM EDT 8:37 PM EDT
Moon 11:00 PM EDT (9/24) 12:03 PM EDT (9/24)
Length of Visible Light 12h 51m
Length of Day
12h 04m
Waning Gibbous, 73% of the Moon is Illuminated
Sep 24
Waning Gibbous
Sep 26
Last Quarter
Oct 4
New
Oct 11
First Quarter
Oct 18
Full

Hourly Weather History & Observations

Time (EDT) Temp. Heat Index Dew Point Humidity Pressure Visibility Wind Dir Wind Speed Gust Speed Precip Events Conditions
12:53 AM 73.9 °F - 73.0 °F 97% 29.99 in 10.0 mi South 5.8 mph - N/A   Mostly Cloudy
1:53 AM 73.9 °F - 73.0 °F 97% 29.96 in 10.0 mi SSE 6.9 mph - N/A   Scattered Clouds
2:04 AM 75.2 °F - 73.4 °F 94% 29.95 in 10.0 mi South 8.1 mph - N/A   Mostly Cloudy
2:14 AM 75.2 °F - 73.4 °F 94% 29.95 in 10.0 mi South 5.8 mph - N/A   Mostly Cloudy
2:53 AM 75.0 °F - 73.9 °F 96% 29.95 in 10.0 mi SE 4.6 mph - N/A   Overcast
3:53 AM 75.9 °F - 73.9 °F 94% 29.94 in 10.0 mi South 4.6 mph - N/A   Overcast
4:53 AM 75.9 °F - 73.9 °F 94% 29.94 in 10.0 mi SSE 3.5 mph - N/A   Overcast
5:53 AM 75.0 °F - 73.9 °F 96% 29.94 in 10.0 mi SSE 4.6 mph - N/A   Mostly Cloudy
6:04 AM 75.2 °F - 73.4 °F 94% 29.93 in 10.0 mi SSE 3.5 mph - N/A   Scattered Clouds
6:53 AM 75.0 °F - 73.9 °F 96% 29.95 in 10.0 mi South 5.8 mph - N/A   Mostly Cloudy
7:53 AM 75.9 °F - 73.9 °F 94% 29.96 in 10.0 mi South 5.8 mph - N/A   Mostly Cloudy
8:53 AM 75.9 °F - 73.9 °F 94% 29.96 in 10.0 mi South 5.8 mph - N/A   Scattered Clouds
9:53 AM 75.9 °F - 73.9 °F 94% 29.96 in 10.0 mi South 8.1 mph - 0.01 in Rain Light Rain
10:53 AM 78.1 °F - 75.0 °F 90% 29.96 in 10.0 mi South 8.1 mph - 0.00 in   Mostly Cloudy
11:53 AM 79.0 °F - 73.9 °F 84% 29.96 in 10.0 mi SSW 6.9 mph - N/A   Partly Cloudy
12:30 PM 80.6 °F 85.4 °F 73.4 °F 79% 29.94 in 10.0 mi SW 6.9 mph - N/A   Mostly Cloudy
12:53 PM 80.1 °F 84.5 °F 73.9 °F 81% 29.95 in 10.0 mi SW 9.2 mph - N/A   Overcast
1:03 PM 80.6 °F 85.4 °F 73.4 °F 79% 29.94 in 10.0 mi SSW 9.2 mph - N/A   Overcast
1:53 PM 82.9 °F 88.8 °F 73.0 °F 72% 29.91 in 10.0 mi SW 8.1 mph - N/A   Scattered Clouds
2:53 PM 84.0 °F 90.2 °F 73.0 °F 69% 29.88 in 10.0 mi SSW 9.2 mph - N/A   Overcast
3:51 PM 78.8 °F - 75.2 °F 89% 29.89 in 1.8 mi SW 6.9 mph - 0.06 in Rain Heavy Rain
3:53 PM 79.0 °F - 75.0 °F 88% 29.90 in 1.2 mi SW 8.1 mph - 0.08 in Rain Heavy Rain
4:10 PM 77.0 °F - 71.6 °F 83% 29.87 in 3.0 mi SE 3.5 mph - 0.10 in Rain Light Rain
4:53 PM 80.1 °F 85.1 °F 75.0 °F 85% 29.88 in 2.5 mi WSW 11.5 mph - 0.16 in Rain Heavy Rain
5:11 PM 77.0 °F - 73.4 °F 89% 29.87 in 0.8 mi Calm Calm - 0.12 in Rain Heavy Rain
5:21 PM 78.8 °F - 75.2 °F 89% 29.86 in 2.0 mi Variable 4.6 mph - 0.17 in Rain Heavy Rain
5:29 PM 78.8 °F - 73.4 °F 83% 29.86 in 10.0 mi SE 3.5 mph - 0.17 in Rain Light Rain
5:53 PM 80.1 °F 84.5 °F 73.9 °F 81% 29.87 in 10.0 mi South 8.1 mph - 0.17 in   Mostly Cloudy
6:53 PM 78.1 °F - 73.0 °F 84% 29.88 in 10.0 mi SW 8.1 mph - N/A   Clear
7:53 PM 75.9 °F - 72.0 °F 87% 29.92 in 6.0 mi NNW 3.5 mph - 0.03 in Rain Rain
8:53 PM 73.9 °F - 72.0 °F 93% 29.89 in 10.0 mi SSW 4.6 mph - 0.02 in   Scattered Clouds
9:53 PM 73.9 °F - 72.0 °F 93% 29.89 in 10.0 mi SW 6.9 mph - 0.01 in   Clear
10:53 PM 75.0 °F - 73.0 °F 94% 29.87 in 10.0 mi SW 5.8 mph - N/A   Scattered Clouds
11:01 PM 75.2 °F - 73.4 °F 94% 29.86 in 10.0 mi SSW 8.1 mph - N/A   Mostly Cloudy
11:42 PM 75.2 °F - 73.4 °F 94% 29.85 in 10.0 mi SW 10.4 mph - N/A   Scattered Clouds
11:53 PM 75.0 °F - 73.9 °F 96% 29.87 in 10.0 mi SW 9.2 mph - N/A   Clear